contact:dominique.lefevre@mio.osupytheas.fr, maurice.libes@osupytheas.fr
Project:EMSO Ligure-ouest http://www.emso-fr.org/EMSO-France
Sensor Aquadopp, line 13 Serial AQD14315 
DOI : "https://doi.org/10.17882/74513; https://doi.org/10.17882/83244" 
Title:EMSO Ligure Ouest : Data ligne ALBATROSS capteur AQUADOPP - deploiement 2021
Id,Date,Profondeur,Latitude,Longitude,X_East,Y_North,Z_Up,Amplitude_X,Amplitude_Y,Amplitude_Z,Batterie,SoundSpeed,Heading,Pitch,Roll,Pressure,Temperature,Speed,Direction
, , m, degrees North, degrees East, m.s-1, m.s-1,m.s-1, 1, 1, 1, Volt, m.s-1, degree, degree, degree, dbar, degree_C, m.s-1, degree
11,2021-08-09T22:00:00,2200.0,42.79,6.0312,0.034,0.0,0.001,57.0,58.0,61.0,13.1,1504.2,17.5,-0.2,-0.2,2193.344,13.16,0.034,90.0
11,2021-08-09T22:30:00,2200.0,42.79,6.0312,0.037,0.0,0.006,59.0,62.0,62.0,13.1,1504.2,17.3,-0.2,0.2,2193.322,13.16,0.037,90.0
11,2021-08-09T23:00:00,2200.0,42.79,6.0312,0.038,0.001,0.002,57.0,61.0,62.0,13.1,1504.2,19.2,-0.2,0.0,2193.307,13.16,0.038,88.5
11,2021-08-09T23:30:00,2200.0,42.79,6.0312,0.043,0.001,-0.004,57.0,61.0,61.0,13.1,1504.2,16.0,-0.1,0.2,2193.288,13.16,0.043,88.7
11,2021-08-10T00:00:00,2200.0,42.79,6.0312,0.026,-0.003,0.014,57.0,60.0,61.0,13.1,1504.2,18.5,0.2,-0.2,2193.227,13.16,0.026,96.6
11,2021-08-10T00:30:00,2200.0,42.79,6.0312,0.024,-0.004,0.007,58.0,59.0,61.0,13.1,1504.2,27.2,0.0,-0.2,2193.245,13.16,0.024,99.5
11,2021-08-10T01:00:00,2200.0,42.79,6.0312,0.033,-0.002,0.022,56.0,58.0,62.0,13.1,1504.2,26.1,-0.2,0.0,2193.232,13.16,0.033,93.5
11,2021-08-10T01:30:00,2200.0,42.79,6.0312,0.046,0.0,-0.005,57.0,60.0,60.0,13.1,1504.2,27.6,-0.2,0.2,2193.189,13.16,0.046,90.0
11,2021-08-10T02:00:00,2200.0,42.79,6.0312,0.045,-0.012,0.008,56.0,59.0,60.0,13.1,1504.2,28.1,-0.3,-0.1,2193.202,13.16,0.046,104.9
11,2021-08-10T02:30:00,2200.0,42.79,6.0312,0.043,-0.014,0.011,57.0,60.0,58.0,13.1,1504.2,26.6,-0.3,0.2,2193.151,13.16,0.045,108.0
11,2021-08-10T03:00:00,2200.0,42.79,6.0312,0.033,-0.015,-0.007,55.0,60.0,60.0,13.1,1504.2,22.8,-0.2,-0.1,2193.159,13.16,0.036,114.4
11,2021-08-10T03:30:00,2200.0,42.79,6.0312,0.038,-0.018,0.011,55.0,59.0,59.0,13.1,1504.2,25.9,-0.3,-0.1,2193.156,13.16,0.042,115.3
11,2021-08-10T04:00:00,2200.0,42.79,6.0312,0.042,-0.008,0.023,57.0,59.0,61.0,13.1,1504.2,25.4,0.0,0.1,2193.12,13.16,0.042,100.8
11,2021-08-10T04:30:00,2200.0,42.79,6.0312,0.032,-0.016,0.008,56.0,58.0,58.0,13.1,1504.2,23.5,0.1,-0.1,2193.124,13.16,0.035,116.6
11,2021-08-10T05:00:00,2200.0,42.79,6.0312,0.026,-0.014,0.009,56.0,58.0,63.0,13.0,1504.2,21.9,0.1,0.1,2193.158,13.16,0.029,118.3
11,2021-08-10T05:30:00,2200.0,42.79,6.0312,0.025,-0.007,-0.003,56.0,59.0,60.0,13.1,1504.2,17.8,-0.1,0.1,2193.194,13.16,0.025,105.6
11,2021-08-10T06:00:00,2200.0,42.79,6.0312,0.025,-0.019,0.002,57.0,58.0,59.0,13.0,1504.2,22.7,0.0,0.1,2193.213,13.16,0.031,127.2
11,2021-08-10T06:30:00,2200.0,42.79,6.0312,0.025,-0.006,0.027,57.0,59.0,61.0,13.0,1504.2,13.8,0.0,0.1,2193.243,13.16,0.025,103.5
11,2021-08-10T07:00:00,2200.0,42.79,6.0312,0.011,-0.004,0.017,57.0,60.0,60.0,13.1,1504.2,16.1,-0.4,-0.2,2193.287,13.16,0.011,110.0
11,2021-08-10T07:30:00,2200.0,42.79,6.0312,0.014,-0.005,0.0,57.0,59.0,62.0,13.1,1504.2,12.1,0.0,-0.2,2193.277,13.16,0.014,109.6
11,2021-08-10T08:00:00,2200.0,42.79,6.0312,0.005,-0.002,0.017,54.0,60.0,60.0,13.0,1504.2,8.5,-0.3,-0.2,2193.308,13.16,0.005,111.8
11,2021-08-10T08:30:00,2200.0,42.79,6.0312,0.016,0.002,0.02,55.0,58.0,59.0,13.1,1504.2,356.6,0.1,-0.1,2193.281,13.16,0.016,82.9
11,2021-08-10T09:00:00,2200.0,42.79,6.0312,0.023,0.001,-0.008,57.0,59.0,60.0,13.1,1504.2,25.2,-0.1,-0.3,2193.225,13.16,0.023,87.5
11,2021-08-10T09:30:00,2200.0,42.79,6.0312,0.026,-0.006,0.001,55.0,59.0,59.0,13.1,1504.2,30.2,-0.1,-0.2,2193.265,13.16,0.026,103.0
11,2021-08-10T10:00:00,2200.0,42.79,6.0312,0.016,0.002,0.012,55.0,60.0,61.0,13.0,1504.2,359.3,0.0,-0.2,2193.209,13.16,0.016,82.9
11,2021-08-10T10:30:00,2200.0,42.79,6.0312,0.017,-0.003,0.009,55.0,59.0,60.0,13.0,1504.2,358.6,-0.2,-0.2,2193.195,13.16,0.017,100.0
11,2021-08-10T11:00:00,2200.0,42.79,6.0312,0.02,-0.003,0.003,57.0,60.0,60.0,13.0,1504.2,350.9,-0.1,0.0,2193.18,13.16,0.02,98.5
11,2021-08-10T11:30:00,2200.0,42.79,6.0312,0.016,-0.008,0.007,56.0,60.0,61.0,13.1,1504.2,3.2,-0.1,0.1,2193.164,13.16,0.017,116.6
11,2021-08-10T12:00:00,2200.0,42.79,6.0312,0.014,0.004,0.014,55.0,61.0,61.0,13.1,1504.2,13.3,0.0,-0.2,2193.16,13.16,0.014,74.1
11,2021-08-10T12:30:00,2200.0,42.79,6.0312,0.024,0.01,0.007,58.0,60.0,60.0,13.1,1504.2,14.0,-0.2,-0.1,2193.143,13.16,0.026,67.4
11,2021-08-10T13:00:00,2200.0,42.79,6.0312,0.024,-0.006,0.005,55.0,59.0,61.0,13.1,1504.2,350.1,-0.2,-0.2,2193.093,13.16,0.024,104.0
11,2021-08-10T13:30:00,2200.0,42.79,6.0312,0.021,0.001,0.017,56.0,59.0,60.0,13.1,1504.2,14.3,-0.2,-0.1,2193.116,13.16,0.021,87.3
11,2021-08-10T14:00:00,2200.0,42.79,6.0312,0.014,0.002,0.006,55.0,60.0,62.0,13.0,1504.2,0.0,-0.2,-0.3,2193.105,13.16,0.014,81.9
11,2021-08-10T14:30:00,2200.0,42.79,6.0312,0.03,0.003,-0.003,57.0,58.0,61.0,13.1,1504.2,355.8,-0.2,-0.2,2193.044,13.16,0.03,84.3
11,2021-08-10T15:00:00,2200.0,42.79,6.0312,0.03,-0.004,0.01,56.0,59.0,61.0,13.0,1504.2,6.6,0.2,-0.2,2193.101,13.16,0.03,97.6
11,2021-08-10T15:30:00,2200.0,42.79,6.0312,0.038,0.001,0.019,56.0,60.0,60.0,13.0,1504.2,1.7,-0.3,0.1,2193.103,13.16,0.038,88.5
11,2021-08-10T16:00:00,2200.0,42.79,6.0312,0.033,0.002,0.005,56.0,60.0,61.0,13.1,1504.2,349.3,0.0,-0.2,2193.078,13.16,0.033,86.5
11,2021-08-10T16:30:00,2200.0,42.79,6.0312,0.039,-0.007,0.019,57.0,60.0,60.0,13.0,1504.2,5.6,-0.4,-0.2,2193.088,13.16,0.039,100.2
11,2021-08-10T17:00:00,2200.0,42.79,6.0312,0.026,0.0,0.004,57.0,59.0,61.0,13.0,1504.2,359.8,-0.3,0.0,2193.136,13.16,0.026,90.0
11,2021-08-10T17:30:00,2200.0,42.79,6.0312,0.028,-0.006,0.0,57.0,58.0,59.0,13.0,1504.2,1.0,-0.6,0.2,2193.177,13.16,0.028,102.1
11,2021-08-10T18:00:00,2200.0,42.79,6.0312,0.028,-0.003,0.015,58.0,60.0,61.0,13.0,1504.2,2.9,-0.3,-0.2,2193.197,13.16,0.028,96.1
11,2021-08-10T18:30:00,2200.0,42.79,6.0312,0.038,-0.007,0.017,57.0,59.0,62.0,13.0,1504.2,12.8,-0.4,-0.1,2193.224,13.16,0.038,100.4
11,2021-08-10T19:00:00,2200.0,42.79,6.0312,0.043,0.002,0.001,56.0,59.0,60.0,13.1,1504.2,7.1,-0.3,0.2,2193.261,13.16,0.043,87.3
11,2021-08-10T19:30:00,2200.0,42.79,6.0312,0.037,-0.006,0.0,59.0,58.0,62.0,13.1,1504.2,13.1,-0.2,-0.2,2193.314,13.16,0.037,99.2
11,2021-08-10T20:00:00,2200.0,42.79,6.0312,0.045,-0.009,-0.007,56.0,59.0,60.0,13.1,1504.2,8.5,-0.4,-0.2,2193.372,13.16,0.045,101.3
11,2021-08-10T20:30:00,2200.0,42.79,6.0312,0.034,0.0,0.001,57.0,60.0,60.0,13.1,1504.2,8.3,-0.1,-0.3,2193.314,13.16,0.034,90.0
11,2021-08-10T21:00:00,2200.0,42.79,6.0312,0.035,-0.014,0.015,56.0,58.0,62.0,13.0,1504.2,359.9,-0.2,-0.2,2193.35,13.16,0.037,111.8
